Joint Base Elmendorf-Richardson, AK

7:10 PM AKST on February 23, 2017 (GMT -0900)
Elmendorf Air Force Base

Weather History for PAED - January, 2013

Change the Weather History Date:

Saturday, January 5, 2013

  Actual Average Record
Temperature  
Mean Temperature 28 °F -  
Max Temperature 31 °F 17 °F 40 °F (1958)
Min Temperature 25 °F 4 °F -35 °F (1975)
Degree Days  
Heating Degree Days 38    
Moisture  
Dew Point 21 °F    
Average Humidity 79    
Maximum Humidity 86    
Minimum Humidity 68    
Precipitation  
Precipitation 0.00 in - - ()
Sea Level Pressure  
Sea Level Pressure 29.46 in    
Wind  
Wind Speed 4 mph (ENE)    
Max Wind Speed 12 mph    
Max Gust Speed -    
Visibility 10 miles    
Events      
Averages and records for this station are not official NWS values.
T = Trace of Precipitation, MM = Missing Value Source: NWS Daily Summary

Daily Weather History Graph

Daily Weather History Graph

Search for Another Location

Airport or City:

Trip Planner

Search our weather history database for the weather conditions in past years. The results will help you decide how hot, cold, wet, or windy it might be!

Date:

Astronomy

Jan. 05, 2013 Rise Set
Actual Time 10:10 AM AKST 4:00 PM AKST
Civil Twilight 9:10 AM AKST 4:59 PM AKST
Nautical Twilight 8:11 AM AKST 5:58 PM AKST
Astronomical Twilight 7:18 AM AKST 6:51 PM AKST
Moon 2:23 AM AKST (1/5) 11:52 AM AKST (1/5)
Length of Visible Light 7h 49m
Length of Day
5h 49m
Last Quarter, 42% of the Moon is Illuminated
Jan 5
Last Quarter
Jan 11
New
Jan 18
First Quarter
Jan 26
Full
Feb 3
Last Quarter

Hourly Weather History & Observations

Time (AKST) Temp. Windchill Dew Point Humidity Pressure Visibility Wind Dir Wind Speed Gust Speed Precip Events Conditions
12:55 AM 25.2 °F 18.3 °F 21.4 °F 86% 29.74 in 10.0 mi ESE 5.8 mph - N/A   Scattered Clouds
1:55 AM 25.7 °F 18.0 °F 21.7 °F 85% 29.71 in 10.0 mi NE 6.9 mph - N/A   Clear
2:55 AM 26.8 °F 20.2 °F 21.7 °F 81% 29.69 in 10.0 mi NNE 5.8 mph - N/A   Clear
3:55 AM 26.4 °F - 20.8 °F 79% 29.65 in 10.0 mi Calm Calm - N/A   Clear
4:55 AM 27.7 °F 22.4 °F 19.9 °F 73% 29.62 in 10.0 mi Variable 4.6 mph - N/A   Mostly Cloudy
5:55 AM 27.9 °F 17.8 °F 19.8 °F 72% 29.58 in 10.0 mi NNE 11.5 mph - N/A   Mostly Cloudy
6:55 AM 25.9 °F - 20.3 °F 79% 29.57 in 10.0 mi Calm Calm - N/A   Overcast
7:55 AM 27.0 °F - 19.0 °F 72% 29.53 in 10.0 mi Calm Calm - N/A   Mostly Cloudy
8:55 AM 25.9 °F - 19.0 °F 75% 29.51 in 10.0 mi Calm Calm - N/A   Overcast
9:55 AM 27.9 °F 19.8 °F 20.1 °F 73% 29.48 in 10.0 mi NE 8.1 mph - N/A   Mostly Cloudy
10:55 AM 28.4 °F - 21.2 °F 74% 29.46 in 10.0 mi Calm Calm - N/A   Overcast
11:55 AM 27.0 °F 21.6 °F 20.8 °F 78% 29.43 in 10.0 mi NE 4.6 mph - N/A   Overcast
12:55 PM 29.1 °F - 21.6 °F 73% 29.42 in 10.0 mi Calm Calm - N/A   Overcast
1:55 PM 27.5 °F - 21.9 °F 80% 29.37 in 10.0 mi Calm Calm - N/A   Mostly Cloudy
2:55 PM 26.8 °F 22.8 °F 21.9 °F 82% 29.33 in 10.0 mi NE 3.5 mph - N/A   Mostly Cloudy
3:55 PM 27.3 °F - 22.1 °F 81% 29.33 in 10.0 mi Calm Calm - N/A   Mostly Cloudy
4:55 PM 26.6 °F - 21.9 °F 82% 29.32 in 10.0 mi Calm Calm - N/A   Overcast
5:55 PM 26.2 °F 22.1 °F 21.4 °F 82% 29.31 in 10.0 mi Variable 3.5 mph - N/A   Mostly Cloudy
6:55 PM 25.3 °F 21.1 °F 21.0 °F 84% 29.32 in 10.0 mi East 3.5 mph - N/A   Overcast
7:55 PM 25.9 °F - 21.2 °F 82% 29.32 in 10.0 mi Calm Calm - N/A   Overcast
8:55 PM 30.6 °F 22.4 °F 23.9 °F 76% 29.31 in 10.0 mi NNE 9.2 mph - N/A   Overcast
9:55 PM 25.9 °F - 22.1 °F 86% 29.33 in 10.0 mi Calm Calm - N/A   Scattered Clouds
10:55 PM 26.4 °F 20.9 °F 22.8 °F 86% 29.32 in 10.0 mi ESE 4.6 mph - N/A   Mostly Cloudy
11:55 PM 31.5 °F 23.5 °F 22.1 °F 68% 29.34 in 10.0 mi NE 9.2 mph - N/A   Overcast